STARLINK-34914, 65203

Orbit data source: Space-Track

STARLINK-34914, 65203 is a payload satellite owned by SpaceX/Seattle (US) in LEO that was launched on Thu, 14 Aug 2025 UTC via an FALCON 9 launch vehicle from the Air Force Eastern Test Range (AFETR). Payload-class satellites include a variety of spacecraft equipped with specific instruments for various scientific and technological missions. These include communications satellites like Starlink; space stations such as the ISS; scientific satellites like the Hubble; Earth observation satellites from companies like Planet Labs, Umbra, and HawkEye 360; GPS; miniature CubeSats for education and research; and military/defense satellites.

Loading next visibility...
Identifier
65203, 2025-176F
Orbit
LEO
Country
Flag of USUS
Related business
Manufacturer
SpaceX/Seattle
Mission
Operational Commercial Communications
Bus & Motor
STARLINK V2MO, Unknown motor
Mass
575 kg wet, ~530 kg dry
Launch date (UTC)
2025-08-14 (10 months ago)
Launch vehicle
FALCON 9
Launch site
Air Force Eastern Test Range (AFETR)
Object type
Payload
Rocket body
Debris
Shape & HBR
Box + 2 Pan, 17.7 m
Radar Cross Section
36.964 m², Large (>1 m²)

Expand to show TLE details & history
Last TLE update: 1 day ago

TLE from 1 day ago
0 STARLINK-34914
1 65203U 25176F   26170.91711205  .00030198  00000-0  90099-3 0  9990
2 65203  53.1588  36.3529 0001120  85.5055 274.6076 15.34410751 48799
Epoch: 2026-06-19T22:00Z
TLE epoch observation values (Epoch: 2026-06-19T22:00:38.481Z)
Latitude
0.00004°
Longitude
158.05338°
Altitude
463.511 km
Speed
7.636 km/s
True Right ascension
02h 25m 24s
True Declination
0° 00' 00"
Sunlit
Object was in daylight at epoch
Visualization orbit readout
Latitude
Unknown
Longitude
Unknown
Altitude
Unknown
Speed
Unknown
Apparent Right ascension
Unknown
Apparent Declination
Unknown
Sunlit
N/A
Visualization observer readout
Local Sidereal Time
08:42:07
Azimuth
Unknown
Elevation
Unknown
Doppler factor
Unknown
Orbital elements
Apogee altitude
463.695 km
Perigee altitude
462.162 km
Semi-major axis
6,841.065 km
Eccentricity
0.00011
Inclination
53.1588°
RAAN
36.3529°
Arg. of periapsis
85.5055°
True anomaly
274.59481°
Mean anomaly
274.6076°
Eccentric anomaly
274.6012°
Mean motion
3.83581 °/min
Orbital period
93.85 mins
BSTAR
0.00090099
Loading maneuver chart data...
Computing Atmospheric mass density...
Loading historical data...
Loading historical data...
Loading historical data...
Loading historical data...
Loading historical data...
Loading historical data...
Loading historical data...

Documentation

Showing up to 5 results
|